TimeCDT,TemperatureF,Dew PointF,Humidity,Sea Level PressureIn,VisibilityMPH,Wind Direction,Wind SpeedMPH,Gust SpeedMPH,PrecipitationIn,Events,Conditions,WindDirDegrees,DateUTC
12:15 AM,33.8,26.6,75,30.00,10.0,WNW,3.5,-,N/A,,Clear,290,2013-10-16 05:15:00
12:35 AM,33.8,26.6,75,30.00,10.0,WNW,4.6,-,N/A,,Clear,290,2013-10-16 05:35:00
12:55 AM,32.0,26.6,80,29.99,10.0,WNW,3.5,-,N/A,,Clear,290,2013-10-16 05:55:00
1:15 AM,32.0,26.6,80,29.99,10.0,West,3.5,-,N/A,,Clear,280,2013-10-16 06:15:00
1:35 AM,32.0,26.6,80,29.99,10.0,West,3.5,-,N/A,,Clear,280,2013-10-16 06:35:00
1:55 AM,32.0,26.6,80,29.99,10.0,West,3.5,-,N/A,,Clear,280,2013-10-16 06:55:00
2:15 AM,32.0,26.6,80,29.99,10.0,West,4.6,-,N/A,,Clear,280,2013-10-16 07:15:00
2:35 AM,30.2,26.6,86,29.98,10.0,Calm,Calm,-,N/A,,Clear,0,2013-10-16 07:35:00
2:55 AM,30.2,26.6,86,29.97,10.0,Calm,Calm,-,N/A,,Clear,0,2013-10-16 07:55:00
3:15 AM,30.2,26.6,86,29.97,7.0,West,3.5,-,N/A,,Clear,260,2013-10-16 08:15:00
3:35 AM,30.2,26.6,86,29.97,9.0,WSW,3.5,-,N/A,,Clear,240,2013-10-16 08:35:00
3:55 AM,30.2,26.6,86,29.96,9.0,WSW,3.5,-,N/A,,Clear,250,2013-10-16 08:55:00
4:15 AM,30.2,26.6,86,29.95,10.0,Calm,Calm,-,N/A,,Clear,0,2013-10-16 09:15:00
4:35 AM,30.2,26.6,86,29.94,10.0,Calm,Calm,-,N/A,,Clear,0,2013-10-16 09:35:00
4:55 AM,30.2,26.6,86,29.94,10.0,South,4.6,-,N/A,,Clear,190,2013-10-16 09:55:00
5:15 AM,28.4,26.6,93,29.93,10.0,SSW,3.5,-,N/A,,Clear,200,2013-10-16 10:15:00
5:35 AM,30.2,26.6,86,29.93,10.0,South,4.6,-,N/A,,Clear,190,2013-10-16 10:35:00
5:55 AM,28.4,24.8,86,29.93,10.0,South,5.8,-,N/A,,Clear,190,2013-10-16 10:55:00
6:15 AM,28.4,24.8,86,29.92,10.0,South,5.8,-,N/A,,Clear,180,2013-10-16 11:15:00
6:35 AM,28.4,24.8,86,29.91,10.0,South,4.6,-,N/A,,Clear,180,2013-10-16 11:35:00
6:55 AM,28.4,24.8,86,29.91,10.0,South,5.8,-,N/A,,Clear,170,2013-10-16 11:55:00
7:15 AM,28.4,26.6,93,29.91,10.0,South,6.9,-,N/A,,Clear,170,2013-10-16 12:15:00
7:35 AM,30.2,26.6,86,29.90,10.0,South,5.8,-,N/A,,Clear,170,2013-10-16 12:35:00
7:55 AM,30.2,26.6,86,29.90,10.0,South,5.8,-,N/A,,Clear,170,2013-10-16 12:55:00
8:15 AM,30.2,26.6,86,29.90,10.0,South,6.9,-,N/A,,Clear,180,2013-10-16 13:15:00
8:35 AM,30.2,26.6,86,29.90,10.0,South,6.9,-,N/A,,Clear,180,2013-10-16 13:35:00
8:55 AM,32.0,28.4,87,29.89,10.0,South,6.9,-,N/A,,Clear,180,2013-10-16 13:55:00
9:15 AM,33.8,28.4,81,29.89,10.0,South,8.1,-,N/A,,Clear,180,2013-10-16 14:15:00
9:35 AM,33.8,30.2,87,29.89,10.0,South,9.2,-,N/A,,Clear,180,2013-10-16 14:35:00
9:55 AM,35.6,30.2,81,29.89,10.0,SSW,9.2,-,N/A,,Clear,200,2013-10-16 14:55:00
10:15 AM,37.4,32.0,81,29.88,10.0,South,10.4,-,N/A,,Clear,190,2013-10-16 15:15:00
10:35 AM,39.2,32.0,75,29.88,10.0,South,10.4,-,N/A,,Clear,190,2013-10-16 15:35:00
10:55 AM,39.2,33.8,81,29.88,10.0,SSW,9.2,-,N/A,,Clear,210,2013-10-16 15:55:00
11:15 AM,41.0,33.8,76,29.87,10.0,SW,11.5,-,N/A,,Clear,220,2013-10-16 16:15:00
11:35 AM,42.8,35.6,76,29.86,10.0,South,10.4,-,N/A,,Clear,190,2013-10-16 16:35:00
11:55 AM,44.6,35.6,71,29.86,10.0,South,11.5,-,N/A,,Clear,180,2013-10-16 16:55:00
12:15 PM,46.4,35.6,66,29.85,10.0,South,11.5,-,N/A,,Clear,190,2013-10-16 17:15:00
12:35 PM,46.4,35.6,66,29.85,10.0,SSW,12.7,-,N/A,,Clear,200,2013-10-16 17:35:00
12:55 PM,48.2,35.6,62,29.84,10.0,SSW,11.5,-,N/A,,Clear,210,2013-10-16 17:55:00
1:15 PM,50.0,37.4,62,29.84,10.0,SSW,13.8,-,N/A,,Clear,200,2013-10-16 18:15:00
1:35 PM,50.0,37.4,62,29.83,10.0,SW,13.8,-,N/A,,Clear,220,2013-10-16 18:35:00
1:55 PM,51.8,37.4,58,29.83,10.0,SSW,11.5,-,N/A,,Clear,210,2013-10-16 18:55:00
2:15 PM,53.6,37.4,54,29.82,10.0,SSW,12.7,-,N/A,,Clear,200,2013-10-16 19:15:00
2:35 PM,53.6,39.2,58,29.81,10.0,SSW,12.7,-,N/A,,Clear,200,2013-10-16 19:35:00
2:55 PM,53.6,37.4,54,29.81,10.0,SSW,13.8,-,N/A,,Clear,210,2013-10-16 19:55:00
3:15 PM,53.6,39.2,58,29.80,10.0,SSW,15.0,-,N/A,,Clear,210,2013-10-16 20:15:00
3:35 PM,55.4,39.2,54,29.80,10.0,SW,13.8,-,N/A,,Clear,230,2013-10-16 20:35:00
3:55 PM,55.4,39.2,54,29.80,10.0,SSW,12.7,-,N/A,,Clear,210,2013-10-16 20:55:00
4:15 PM,55.4,39.2,54,29.80,10.0,SSW,12.7,-,N/A,,Clear,210,2013-10-16 21:15:00
4:35 PM,55.4,39.2,54,29.79,10.0,SSW,16.1,-,N/A,,Clear,210,2013-10-16 21:35:00
4:55 PM,55.4,39.2,54,29.79,10.0,SSW,11.5,-,N/A,,Clear,210,2013-10-16 21:55:00
5:15 PM,55.4,39.2,54,29.79,10.0,SSW,13.8,-,N/A,,Clear,210,2013-10-16 22:15:00
5:35 PM,55.4,39.2,54,29.79,10.0,SSW,10.4,-,N/A,,Clear,210,2013-10-16 22:35:00
5:55 PM,55.4,39.2,54,29.79,10.0,SSW,10.4,-,N/A,,Clear,200,2013-10-16 22:55:00
6:15 PM,53.6,39.2,58,29.79,10.0,West,5.8,-,N/A,,Clear,260,2013-10-16 23:15:00
6:35 PM,51.8,37.4,58,29.79,10.0,West,4.6,-,N/A,,Clear,270,2013-10-16 23:35:00
6:55 PM,50.0,35.6,58,29.79,10.0,SW,4.6,-,N/A,,Clear,230,2013-10-16 23:55:00
7:15 PM,48.2,35.6,62,29.80,10.0,WSW,3.5,-,N/A,,Clear,240,2013-10-17 00:15:00
7:35 PM,48.2,37.4,66,29.80,10.0,SW,4.6,-,N/A,,Clear,220,2013-10-17 00:35:00
7:55 PM,46.4,35.6,66,29.80,10.0,WSW,4.6,-,N/A,,Clear,250,2013-10-17 00:55:00
8:15 PM,46.4,35.6,66,29.80,10.0,West,4.6,-,N/A,,Clear,270,2013-10-17 01:15:00
8:35 PM,46.4,35.6,66,29.80,10.0,Calm,Calm,-,N/A,,Clear,0,2013-10-17 01:35:00
8:55 PM,44.6,35.6,71,29.80,10.0,Calm,Calm,-,N/A,,Clear,0,2013-10-17 01:55:00
9:15 PM,44.6,35.6,71,29.81,10.0,Calm,Calm,-,N/A,,Clear,0,2013-10-17 02:15:00
9:35 PM,44.6,37.4,76,29.81,10.0,Calm,Calm,-,N/A,,Clear,0,2013-10-17 02:35:00
9:55 PM,42.8,35.6,76,29.81,10.0,Calm,Calm,-,N/A,,Scattered Clouds,0,2013-10-17 02:55:00
10:15 PM,44.6,37.4,76,29.81,10.0,Calm,Calm,-,N/A,,Mostly Cloudy,0,2013-10-17 03:15:00
10:35 PM,44.6,37.4,76,29.81,10.0,Calm,Calm,-,N/A,,Partly Cloudy,0,2013-10-17 03:35:00
10:55 PM,42.8,35.6,76,29.81,10.0,Calm,Calm,-,N/A,,Clear,0,2013-10-17 03:55:00
11:15 PM,42.8,35.6,76,29.81,10.0,Calm,Calm,-,N/A,,Clear,0,2013-10-17 04:15:00
11:35 PM,42.8,35.6,76,29.81,10.0,Calm,Calm,-,N/A,,Clear,0,2013-10-17 04:35:00
11:55 PM,42.8,35.6,76,29.81,10.0,Calm,Calm,-,N/A,,Clear,0,2013-10-17 04:55:00